This demonstration page uses our WeatherBlox Daily Observations layout. Learn more.

Left ArrowRight Arrow

Hourly Observations for March 5, 2021

Temp ( °F °C ) Dew Point ( °F °C ) Humidity (%) Winds ( mph kmh ) Pressure ( in mb ) Visibility ( mi km ) Precip ( " mm )
12:54 am 00:54 Clear 40 4.4 32 undefined 73 73 NE 6 9 30.21 1023 10 16 N/A
1:54 am 01:54 Clear 38 3.3 32 undefined 79 79 NE 6 9 30.22 1023 7 11 N/A
2:54 am 02:54 Hazy 38 3.3 33 0.6 83 83 ENE 8 13 30.21 1023 6 10 N/A
3:54 am 03:54 Hazy 38 3.3 33 0.6 83 83 NE 7 11 30.22 1023 6 10 N/A
4:54 am 04:54 Clear with Mist and Fog 33 0.6 30 -1.1 89 89 NNE 6 9 30.25 1024 5 8 N/A
5:54 am 05:54 Clear with Mist and Fog 31 -0.6 28 -2.2 89 89 NE 7 11 30.27 1025 5 8 N/A
6:54 am 06:54 Sunny with Mist and Fog 30 -1.1 27 -2.8 88 88 NNE 7 11 30.30 1026 5 8 N/A
7:54 am 07:54 Hazy 35 1.7 30 -1.1 82 82 NNE 6 9 30.32 1027 5 8 N/A
8:54 am 08:54 Sunny 40 4.4 31 -0.6 70 70 E 8 13 30.33 1027 10 16 N/A
9:54 am 09:54 Sunny 44 6.7 31 -0.6 60 60 VRB 5 7 30.33 1027 10 16 N/A
10:54 am 10:54 Sunny 48 8.9 31 -0.6 52 52 VRB 3 6 30.34 1027 10 16 N/A
11:54 am 11:54 Sunny 52 11.1 29 -1.7 41 41 N N/A 30.33 1027 10 16 N/A
12:54 pm 12:54 Sunny 55 12.8 28 -2.2 35 35 N N/A 30.31 1027 10 16 N/A
1:54 pm 13:54 Sunny 58 14.4 29 -1.7 33 33 undefined N/A 30.29 1026 10 16 N/A
2:54 pm 14:54 Sunny 60 15.6 29 -1.7 31 31 N N/A 30.27 1025 10 16 N/A
3:54 pm 15:54 Sunny 60 15.6 29 -1.7 31 31 VRB 3 6 30.26 1025 10 16 N/A
4:54 pm 16:54 Sunny 60 15.6 29 -1.7 31 31 E 6 9 30.26 1025 10 16 N/A
5:54 pm 17:54 Sunny 57 13.9 29 -1.7 34 34 ESE 6 9 30.27 1025 10 16 N/A
6:54 pm 18:54 Clear 53 11.7 28 -2.2 38 38 ESE 3 6 30.28 1026 10 16 N/A
7:54 pm 19:54 Clear 47 8.3 29 -1.7 50 50 N N/A 30.28 1026 10 16 N/A
8:54 pm 20:54 Clear 38 3.3 27 -2.8 65 65 N N/A 30.29 1026 10 16 N/A
9:54 pm 21:54 Clear 34 1.1 27 -2.8 76 76 N N/A 30.30 1026 10 16 N/A
10:54 pm 22:54 Clear 36 2.2 27 -2.8 70 70 N N/A 30.29 1026 10 16 N/A
11:54 pm 23:54 Clear 33 0.6 26 -3.3 75 75 N N/A 30.27 1025 10 16 N/A

Powered by AerisWeather